Location: Newark
(48.4472°N, 1.4892°E)
Time: 22:08:36
(UTC+00:00)

Transit 4A - Pass Details

Date: 26 November 2019
Orbit: 870 x 975 km, 66.8° (Epoch: 11 December)

Event Time Altitude Azimuth Distance (km) Brightness Sun altitude
Exits shadow 02:57:48 21° 58° (ENE) 1,900 10.0 -42.2°
Drops below altitude 10° 03:00:36 10° 85° (E) 2,532 10.8 -41.8°
Sets 03:03:34 0° 99° (E) 3,460 11.6 -41.3°
